Time,TemperatureF,DewpointF,PressureIn,WindDirection,WindDirectionDegrees,WindSpeedMPH,WindSpeedGustMPH,Humidity,HourlyPrecipIn,Conditions,Clouds,dailyrainin,SoftwareType,DateUTC
2013-06-27 00:01:00,74.0,70.0,29.72,ESE,119,0.0,0.0,88,0.00,,,0.00,,2013-06-27 04:01:00,
2013-06-27 00:11:00,74.0,70.0,29.72,ESE,119,0.0,0.0,88,0.00,,,0.00,,2013-06-27 04:11:00,
2013-06-27 00:32:00,74.0,70.0,29.71,ESE,119,0.0,0.0,88,0.00,,,0.00,,2013-06-27 04:32:00,
2013-06-27 00:42:00,74.0,70.0,29.71,ESE,119,0.0,0.0,88,0.00,,,0.00,,2013-06-27 04:42:00,
2013-06-27 00:53:00,73.0,70.0,29.69,ESE,119,0.0,0.0,90,0.00,,,0.00,,2013-06-27 04:53:00,
2013-06-27 01:02:00,73.0,70.0,29.69,ESE,119,0.0,0.0,90,0.00,,,0.00,,2013-06-27 05:02:00,
2013-06-27 01:12:00,73.0,70.0,29.69,ESE,119,0.0,0.0,90,0.00,,,0.00,,2013-06-27 05:12:00,
2013-06-27 01:22:00,73.0,70.0,29.69,ESE,119,0.0,0.0,91,0.00,,,0.00,,2013-06-27 05:22:00,
2013-06-27 01:32:00,73.0,70.0,29.69,ESE,119,0.0,0.0,91,0.00,,,0.00,,2013-06-27 05:32:00,
2013-06-27 01:42:00,73.0,70.0,29.69,ESE,119,0.0,0.0,91,0.00,,,0.00,,2013-06-27 05:42:00,
2013-06-27 01:53:00,73.0,70.0,29.68,ESE,119,0.0,0.0,91,0.00,,,0.00,,2013-06-27 05:53:00,
2013-06-27 02:01:00,73.0,70.0,29.70,ESE,119,0.0,0.0,91,0.00,,,0.00,,2013-06-27 06:01:00,
2013-06-27 02:12:00,72.0,70.0,29.70,ESE,119,0.0,0.0,92,0.00,,,0.00,,2013-06-27 06:12:00,
2013-06-27 02:22:00,72.0,70.0,29.70,ESE,119,0.0,0.0,92,0.00,,,0.00,,2013-06-27 06:22:00,
2013-06-27 02:34:00,72.0,70.0,29.70,ESE,119,0.0,0.0,92,0.00,,,0.00,,2013-06-27 06:34:00,
2013-06-27 02:43:00,72.0,70.0,29.68,ESE,119,0.0,0.0,92,0.00,,,0.00,,2013-06-27 06:43:00,
2013-06-27 02:53:00,72.0,70.0,29.69,ESE,119,0.0,0.0,93,0.00,,,0.00,,2013-06-27 06:53:00,
2013-06-27 03:02:00,72.0,70.0,29.69,ESE,119,0.0,0.0,93,0.00,,,0.00,,2013-06-27 07:02:00,
2013-06-27 03:22:00,72.0,70.0,29.69,ESE,119,0.0,0.0,93,0.00,,,0.00,,2013-06-27 07:22:00,
2013-06-27 03:33:00,72.0,70.0,29.69,ESE,119,0.0,0.0,93,0.00,,,0.00,,2013-06-27 07:33:00,
2013-06-27 03:43:00,72.0,70.0,29.69,ESE,119,0.0,0.0,94,0.00,,,0.00,,2013-06-27 07:43:00,
2013-06-27 03:52:00,71.0,69.0,29.69,ESE,119,0.0,0.0,94,0.00,,,0.00,,2013-06-27 07:52:00,
2013-06-27 04:01:00,71.0,69.0,29.69,ESE,119,0.0,0.0,94,0.00,,,0.00,,2013-06-27 08:01:00,
2013-06-27 04:22:00,71.0,69.0,29.68,ESE,119,0.0,0.0,94,0.00,,,0.00,,2013-06-27 08:22:00,
2013-06-27 04:34:00,71.0,69.0,29.68,ESE,119,0.0,0.0,94,0.00,,,0.00,,2013-06-27 08:34:00,
2013-06-27 04:52:00,71.0,69.0,29.67,ESE,119,0.0,0.0,94,0.00,,,0.00,,2013-06-27 08:52:00,
2013-06-27 05:02:00,70.0,68.0,29.68,ESE,119,0.0,0.0,94,0.00,,,0.00,,2013-06-27 09:02:00,
2013-06-27 05:11:00,70.0,68.0,29.68,ESE,119,0.0,0.0,94,0.00,,,0.00,,2013-06-27 09:11:00,
2013-06-27 05:22:00,70.0,68.0,29.68,ESE,119,0.0,0.0,94,0.00,,,0.00,,2013-06-27 09:22:00,
2013-06-27 05:53:00,69.0,68.0,29.68,ESE,119,0.0,0.0,95,0.00,,,0.00,,2013-06-27 09:53:00,
2013-06-27 06:01:00,69.0,68.0,29.67,ESE,119,0.0,0.0,95,0.00,,,0.00,,2013-06-27 10:01:00,
2013-06-27 06:11:00,69.0,68.0,29.68,ESE,119,0.0,0.0,95,0.00,,,0.00,,2013-06-27 10:11:00,
2013-06-27 06:22:00,69.0,68.0,29.68,ESE,119,0.0,0.0,95,0.00,,,0.00,,2013-06-27 10:22:00,
2013-06-27 06:32:00,69.0,68.0,29.68,ESE,119,0.0,0.0,95,0.00,,,0.00,,2013-06-27 10:32:00,
2013-06-27 06:54:00,69.0,68.0,29.68,ESE,119,0.0,0.0,95,0.00,,,0.00,,2013-06-27 10:54:00,
2013-06-27 07:43:00,69.0,68.0,29.68,ESE,119,0.0,0.0,95,0.00,,,0.00,,2013-06-27 11:43:00,
2013-06-27 08:11:00,69.0,68.0,29.67,ESE,119,0.0,0.0,96,0.00,,,0.00,,2013-06-27 12:11:00,
2013-06-27 08:42:00,72.0,71.0,29.67,SE,126,0.0,0.0,96,0.00,,,0.00,,2013-06-27 12:42:00,
2013-06-27 09:01:00,74.0,72.0,29.68,ESE,118,0.0,2.0,95,0.00,,,0.00,,2013-06-27 13:01:00,
2013-06-27 09:11:00,75.0,72.0,29.67,East,101,0.0,3.0,91,0.00,,,0.00,,2013-06-27 13:11:00,
2013-06-27 09:34:00,77.0,73.0,29.67,East,98,0.0,0.0,87,0.00,,,0.00,,2013-06-27 13:34:00,
2013-06-27 09:52:00,79.0,73.0,29.67,East,86,0.0,0.0,83,0.00,,,0.00,,2013-06-27 13:52:00,
2013-06-27 10:11:00,80.0,74.0,29.66,East,86,0.0,0.0,81,0.00,,,0.00,,2013-06-27 14:11:00,
2013-06-27 10:43:00,82.0,73.0,29.66,SSW,204,0.0,0.0,75,0.00,,,0.00,,2013-06-27 14:43:00,
2013-06-27 10:52:00,82.0,74.0,29.66,WSW,252,0.0,3.0,77,0.00,,,0.00,,2013-06-27 14:52:00,
2013-06-27 11:12:00,82.0,73.0,29.65,ENE,67,0.0,0.0,74,0.00,,,0.00,,2013-06-27 15:12:00,
2013-06-27 11:42:00,84.0,74.0,29.65,North,0,0.0,2.0,73,0.00,,,0.00,,2013-06-27 15:42:00,
2013-06-27 11:52:00,84.0,74.0,29.65,North,0,0.0,2.0,73,0.00,,,0.00,,2013-06-27 15:52:00,
2013-06-27 12:11:00,84.0,73.0,29.65,WSW,238,0.0,2.0,69,0.00,,,0.00,,2013-06-27 16:11:00,
2013-06-27 12:23:00,84.0,73.0,29.65,WSW,238,0.0,2.0,69,0.00,,,0.00,,2013-06-27 16:23:00,
2013-06-27 12:34:00,83.0,72.0,29.64,WNW,283,0.0,3.0,70,0.00,,,0.00,,2013-06-27 16:34:00,
2013-06-27 12:43:00,83.0,71.0,29.63,WSW,251,4.0,4.0,68,0.00,,,0.00,,2013-06-27 16:43:00,
2013-06-27 12:53:00,84.0,71.0,29.63,WSW,250,0.0,4.0,65,0.00,,,0.00,,2013-06-27 16:53:00,
2013-06-27 13:22:00,84.0,71.0,29.62,WSW,250,3.0,4.0,65,0.00,,,0.00,,2013-06-27 17:22:00,
2013-06-27 13:53:00,84.0,72.0,29.61,SSW,200,4.0,4.0,68,0.00,,,0.00,,2013-06-27 17:53:00,
2013-06-27 14:01:00,83.0,71.0,29.61,WSW,237,4.0,6.0,68,0.00,,,0.00,,2013-06-27 18:01:00,
2013-06-27 14:32:00,83.0,73.0,29.62,North,5,0.0,5.0,71,0.00,,,0.00,,2013-06-27 18:32:00,
2013-06-27 14:44:00,82.0,71.0,29.62,NNE,28,1.0,14.0,69,0.00,,,0.00,,2013-06-27 18:44:00,
2013-06-27 14:52:00,82.0,71.0,29.62,NNE,28,1.0,14.0,69,0.00,,,0.00,,2013-06-27 18:52:00,
2013-06-27 15:01:00,75.0,68.0,29.62,NE,42,0.0,5.0,80,0.03,,,0.03,,2013-06-27 19:01:00,
2013-06-27 15:23:00,72.0,67.0,29.63,NE,49,0.0,1.0,85,0.03,,,0.03,,2013-06-27 19:23:00,
2013-06-27 15:34:00,72.0,67.0,29.63,NE,49,0.0,1.0,85,0.03,,,0.03,,2013-06-27 19:34:00,
2013-06-27 15:42:00,71.0,67.0,29.67,WSW,247,0.0,3.0,87,0.06,,,0.06,,2013-06-27 19:42:00,
2013-06-27 15:53:00,71.0,67.0,29.67,WSW,247,0.0,3.0,87,0.06,,,0.06,,2013-06-27 19:53:00,
2013-06-27 16:02:00,71.0,67.0,29.67,WSW,247,0.0,3.0,87,0.06,,,0.06,,2013-06-27 20:02:00,
2013-06-27 16:54:00,70.0,68.0,29.65,ENE,67,2.0,3.0,94,0.06,,,0.15,,2013-06-27 20:54:00,
2013-06-27 17:53:00,71.0,69.0,29.63,East,80,0.0,2.0,92,0.00,,,0.15,,2013-06-27 21:53:00,
2013-06-27 18:15:00,71.0,68.0,29.63,East,80,0.0,1.0,91,0.00,,,0.15,,2013-06-27 22:15:00,
2013-06-27 18:24:00,71.0,69.0,29.65,East,80,0.0,0.0,92,0.00,,,0.15,,2013-06-27 22:24:00,
2013-06-27 18:35:00,71.0,69.0,29.65,SE,128,2.0,3.0,93,0.11,,,0.26,,2013-06-27 22:35:00,
2013-06-27 18:58:00,70.0,68.0,29.64,SSE,149,0.0,0.0,94,0.14,,,0.30,,2013-06-27 22:58:00,
2013-06-27 19:05:00,70.0,68.0,29.64,ENE,78,0.0,4.0,94,0.17,,,0.32,,2013-06-27 23:05:00,
2013-06-27 19:15:00,69.0,67.0,29.65,ENE,76,0.0,1.0,94,0.19,,,0.34,,2013-06-27 23:15:00,
2013-06-27 19:34:00,69.0,67.0,29.67,South,180,0.0,3.0,94,0.18,,,0.46,,2013-06-27 23:34:00,
2013-06-27 19:45:00,68.0,66.0,29.66,SW,217,0.0,1.0,94,0.17,,,0.47,,2013-06-27 23:45:00,
2013-06-27 19:55:00,68.0,67.0,29.65,SSW,211,0.0,3.0,95,0.19,,,0.50,,2013-06-27 23:55:00,
2013-06-27 20:07:00,68.0,67.0,29.64,WSW,240,0.0,4.0,95,0.19,,,0.51,,2013-06-28 00:07:00,
2013-06-27 20:14:00,68.0,67.0,29.65,WSW,244,0.0,3.0,95,0.18,,,0.52,,2013-06-28 00:14:00,
2013-06-27 20:29:00,68.0,67.0,29.64,SW,225,0.0,3.0,95,0.09,,,0.52,,2013-06-28 00:29:00,
2013-06-27 20:35:00,68.0,67.0,29.65,West,265,2.0,4.0,95,0.05,,,0.52,,2013-06-28 00:35:00,
2013-06-27 20:45:00,68.0,67.0,29.65,West,259,2.0,3.0,95,0.04,,,0.52,,2013-06-28 00:45:00,
2013-06-27 20:54:00,68.0,67.0,29.65,WNW,290,2.0,3.0,95,0.02,,,0.52,,2013-06-28 00:54:00,
2013-06-27 21:08:00,68.0,67.0,29.65,WNW,290,2.0,3.0,95,0.02,,,0.52,,2013-06-28 01:08:00,
2013-06-27 21:14:00,68.0,67.0,29.64,West,272,0.0,0.0,95,0.02,,,0.54,,2013-06-28 01:14:00,
2013-06-27 21:25:00,68.0,67.0,29.63,West,271,0.0,0.0,95,0.02,,,0.54,,2013-06-28 01:25:00,
2013-06-27 21:46:00,68.0,67.0,29.63,West,272,0.0,0.0,96,0.04,,,0.56,,2013-06-28 01:46:00,
2013-06-27 21:56:00,68.0,67.0,29.62,West,272,0.0,0.0,95,0.04,,,0.56,,2013-06-28 01:56:00,
2013-06-27 22:17:00,67.0,66.0,29.61,West,271,0.0,0.0,96,0.03,,,0.56,,2013-06-28 02:17:00,
2013-06-27 22:54:00,67.0,66.0,29.60,WSW,253,2.0,4.0,96,0.00,,,0.56,,2013-06-28 02:54:00,
2013-06-27 23:07:00,67.0,66.0,29.61,SW,231,2.0,4.0,96,0.00,,,0.56,,2013-06-28 03:07:00,
2013-06-27 23:44:00,67.0,66.0,29.61,SSW,204,0.0,0.0,96,0.00,,,0.56,,2013-06-28 03:44:00,